[[{"header":{"parameterUnit":"m.s-1","parameterCategory":1,"la1":30.2991,"la2":30.254,"lo1":-89.0895,"lo2":-89.0444,"dy":0.0017,"dx":0.0017,"nx":28,"ny":28,"refTime":"2025-01-01T09:00:00:Z","depth":0,"parameterNumber":2,"parameterNumberName":"U-component_of_WINDS"},"data":[0,0,0,0,0,0,0,0,0,0,0,0,0,0,0,0,0,0,0,0,0,0,0,0,0,0,0,0,0,0,0,0,0,0,0,0,0,0,0,0,0,0,0,0,0,0,0,0,0,0,0,0,0,0,0,0,0,0,-2.9664,-2.9664,0,-2.9636,-2.9635,-2.9635,-2.9519,-2.9516,-2.9513,-2.9511,-2.9484,-2.9485,-2.9487,0,0,0,0,0,0,0,0,0,0,0,0,0,-2.9621,-2.9622,-2.9664,-2.9664,-2.9663,-2.9636,-2.9635,-2.9635,-2.9519,-2.9516,-2.9513,-2.9509,-2.9483,-2.9485,-2.9487,0,0,0,0,0,0,0,0,0,0,0,0,0,-2.9621,-2.9623,-2.9664,-2.9602,-2.9596,-2.9636,-2.9635,-2.9635,-2.952,-2.9516,-2.9512,-2.9508,-2.9482,-2.9485,-2.9487,-2.9585,0,0,-2.9496,-2.9497,0,0,0,0,0,0,0,0,-2.9621,-2.9623,-2.9612,-2.9607,-2.96,-2.9576,-2.961,-2.9618,-2.9521,-2.9549,-2.9511,-2.9506,-2.9518,-2.9517,-2.9521,-2.9584,-2.9583,-2.9496,-2.9498,-2.9499,-2.9499,0,0,0,0,0,0,0,-2.9621,-2.9623,-2.9653,-2.9612,-2.9605,-2.9577,-2.9572,-2.9611,-2.9557,-2.9546,-2.9538,-2.9536,-2.9514,-2.9519,-2.9519,-2.9582,-2.9496,-2.9498,-2.95,-2.9501,-2.9725,-2.9729,0,0,0,0,0,0,-2.963,-2.9624,-2.9654,-2.9652,-2.9601,-2.9581,-2.9576,-2.9588,-2.9556,-2.9547,-2.9539,-2.953,-2.9516,-2.9516,-2.9518,-2.963,-2.9499,-2.9501,-2.9503,-2.972,-2.9726,-2.973,0,0,0,0,0,0,-2.9629,-2.9633,-2.9655,-2.9636,-2.9636,-2.9586,-2.9601,-2.959,-2.9594,-2.955,-2.954,-2.9554,-2.9513,-2.9514,-2.9569,-2.9627,-2.9502,-2.9505,-2.9715,-2.9722,-2.9728,-2.9855,0,0,0,0,0,0,-2.9629,-2.9634,-2.967,-2.9637,-2.9638,-2.9706,-2.9604,-2.9592,-2.9599,-2.9587,-2.9561,-2.9553,-2.951,-2.9566,-2.9572,-2.9629,-2.9507,-2.971,-2.9718,-2.9726,-2.9845,-2.9865,-2.9882,0,0,0,0,0,-2.9627,-2.9707,-2.9672,-2.9676,-2.9681,-2.9709,-2.971,-2.9657,-2.9604,-2.964,-2.9612,-2.9554,-2.9621,-2.9573,-2.9578,-2.9637,-2.9706,-2.9716,-2.9725,-2.9837,-2.9861,-2.9881,0,0,0,0,0,0,-2.9747,-2.9701,-2.9662,-2.9733,-2.9726,-2.969,-2.9733,-2.9684,-2.9693,-2.9681,-2.9617,-2.9612,-2.9677,-2.9662,-2.961,-2.973,-2.9654,-2.9665,-2.9736,-2.9759,-2.9777,-2.9778,-2.9509,0,0,0,0,0,-2.9782,-2.9808,-2.9767,-2.9833,-2.9832,-2.9784,-2.9794,-2.9755,-2.9745,-2.9741,-2.9717,-2.9711,-2.973,-2.9744,-2.9759,-2.9844,-2.9836,-2.9887,-2.9905,-2.992,-2.993,-2.9974,-2.9996,-2.9762,-2.9762,-2.9762,0,0,-2.9853,-2.9832,-2.9852,-2.9857,-2.9847,-2.9876,-2.9782,-2.9816,-2.9838,-2.9747,-2.9796,-2.978,-2.9768,-2.9838,-2.9868,-2.9828,-2.9994,-2.9933,-2.9945,-2.9947,-2.9987,-3.0009,-3.0029,-2.9769,-2.9768,-2.9767,0,0,-2.9998,-2.9985,-3.0039,-3.0031,-3.0017,-2.9985,-2.9998,-2.997,-2.9955,-3.0004,-2.9937,-2.9962,-2.9997,-2.9991,-2.9993,-3.014,-3.0087,-3.0147,-3.0241,-3.0285,-3.0303,-3.0319,-3.0371,-3.0391,-3.0158,-3.0158,-3.0158,0,-3.0089,-3.0129,-3.0073,-3.0112,-3.0117,-3.0036,-3.0091,-3.0087,-3.0079,-3.0085,-3.0041,-3.0083,-3.007,-3.0138,-3.0174,-3.0178,-3.0192,-3.0148,-3.0305,-3.0321,-3.0335,-3.0383,-3.0403,-3.0165,-3.0164,-3.0164,-3.0163,0,-3.0241,-3.0271,-3.0317,-3.0311,-3.0321,-3.0368,-3.032,-3.0337,-3.0298,-3.0271,-3.0324,-3.0305,-3.0316,-3.033,-3.0292,-3.0393,-3.0369,-3.0317,-3.0238,-3.0365,-3.041,-3.0428,-3.0176,-3.0173,-3.0171,-3.0169,0,0,-3.0458,-3.0422,-3.0439,-3.0436,-3.0416,-3.0438,-3.0483,-3.0493,-3.0509,-3.0508,-3.0544,-3.0576,-3.0528,-3.053,-3.0492,-3.053,-3.0647,-3.0473,-3.0472,-3.0505,-3.0758,-3.0796,-3.0819,-3.0613,-3.0617,-3.0619,-3.0759,0,-3.0595,-3.0667,-3.0619,-3.07,-3.0727,-3.0653,-3.0691,-3.0684,-3.0661,-3.0682,-3.0657,-3.068,-3.0615,-3.0616,-3.0651,-3.0626,-3.0697,-3.0615,-3.0646,-3.0648,-3.0649,-3.0842,-3.0882,-3.1014,-3.0776,-3.0779,-3.0781,0,-3.0764,-3.0769,-3.0853,-3.0829,-3.0838,-3.0874,-3.088,-3.09,-3.0892,-3.0872,-3.0877,-3.0829,-3.0872,-3.0797,-3.0856,-3.0801,-3.0812,-3.0801,-3.0805,-3.0804,-3.072,-3.0845,-3.1055,-3.1074,-3.0808,-3.0806,-3.0804,0,-3.0912,-3.0941,-3.0994,-3.0994,-3.0968,-3.0995,-3.0985,-3.0972,-3.0982,-3.0988,-3.0994,-3.1006,-3.1012,-3.1023,-3.098,-3.0929,-3.1045,-3.0966,-3.103,-3.1031,-3.1055,-3.1054,-3.1268,-3.1066,-3.1065,-3.1065,-3.1065,0,-3.1069,-3.1122,-3.1061,-3.1093,-3.1152,-3.1098,-3.1158,-3.114,-3.113,-3.1159,-3.1097,-3.1126,-3.1068,-3.1092,-3.1059,-3.1113,-3.1117,-3.1102,-3.1093,-3.1107,-3.1109,-3.1111,-3.11,-3.107,-3.1069,-3.1068,-3.1067,0,-3.1243,-3.1203,-3.1257,-3.1228,-3.1223,-3.1267,-3.1243,-3.1273,-3.1247,-3.1284,-3.129,-3.125,-3.1274,-3.1233,-3.1253,-3.1231,-3.1306,-3.1283,-3.1308,-3.1301,-3.1367,-3.1361,-3.1589,-3.1616,-3.1398,-3.14,-3.1402,0,-3.1344,-3.1384,-3.136,-3.1375,-3.1369,-3.1393,-3.1403,-3.1353,-3.1366,-3.136,-3.1391,-3.141,-3.1423,-3.1466,-3.1439,-3.1454,-3.143,-3.1509,-3.1432,-3.1445,-3.143,-3.1427,-3.1431,-3.1524,-3.1527,-3.1529,-3.1531,0,-3.1528,-3.1508,-3.1524,-3.1534,-3.1548,-3.1554,-3.1555,-3.1571,-3.1518,-3.1536,-3.156,-3.157,-3.1591,-3.1611,-3.162,-3.1611,-3.1563,-3.1556,-3.1571,-3.1585,-3.1597,-3.1591,-3.135,-3.155,-3.1548,-3.1547,-3.1546,-3.1545,-3.1668,-3.17,-3.1689,-3.1709,-3.1705,-3.1709,-3.1735,-3.1713,-3.1733,-3.1745,-3.1715,-3.1747,-3.1739,-3.1746,-3.1743,-3.1767,-3.1733,-3.1755,-3.1761,-3.1767,-3.1776,-3.1596,-3.1769,-3.1769,-3.1768,-3.1768,-3.1767,0,-3.1848,-3.1838,-3.1857,-3.1861,-3.1878,-3.1832,-3.1832,-3.1849,-3.1878,-3.1874,-3.1889,-3.1917,-3.1937,-3.1913,-3.1929,-3.1954,-3.1932,-3.1959,-3.1956,-3.1955,-3.1807,-3.1792,-3.1977,-3.1977,-3.1977,-3.1977,-3.1977,-3.1977,-3.1943,-3.1995,-3.1974,-3.2024,-3.2013,-3.2043,-3.2047,-3.205,-3.2047,-3.2082,-3.2099,-3.2083,-3.2071,-3.2086,-3.2103,-3.2096,-3.2104,-3.2139,-3.2124,-3.1986,-3.1965,-3.1945,-3.193,-3.2142,-3.2142,-3.2269,-3.227,-3.2271]},{"header":{"parameterUnit":"m.s-1","parameterCategory":1,"la1":30.2991,"la2":30.254,"lo1":-89.0895,"lo2":-89.0444,"dy":0.0017,"dx":0.0017,"nx":28,"ny":28,"refTime":"2025-01-01T09:00:00:Z","depth":0,"parameterNumber":3,"parameterNumberName":"V-component_of_WINDS"},"data":[0,0,0,0,0,0,0,0,0,0,0,0,0,0,0,0,0,0,0,0,0,0,0,0,0,0,0,0,0,0,0,0,0,0,0,0,0,0,0,0,0,0,0,0,0,0,0,0,0,0,0,0,0,0,0,0,0,0,0.9943,0.9943,0,1.0008,1.0009,1.001,1.0094,1.0095,1.0096,1.0098,1.0161,1.0161,1.0162,0,0,0,0,0,0,0,0,0,0,0,0,0,0.9889,0.9889,0.9943,0.9944,0.9944,1.0008,1.0009,1.001,1.0093,1.0095,1.0097,1.0098,1.0161,1.0161,1.0162,0,0,0,0,0,0,0,0,0,0,0,0,0,0.9929,0.989,0.9943,0.9994,0.9999,1.0008,1.0009,1.001,1.0093,1.0095,1.0097,1.0099,1.0161,1.0161,1.0162,1.0124,0,0,1.0164,1.0164,0,0,0,0,0,0,0,0,0.9926,0.9931,0.9985,0.999,0.9996,1.0045,1.0013,1.0048,1.0093,1.0057,1.0098,1.01,1.012,1.0125,1.0132,1.0127,1.013,1.0164,1.0164,1.0164,1.0165,0,0,0,0,0,0,0,0.9924,0.9928,0.9969,0.9986,0.9993,1.0013,1.0021,1.002,1.0076,1.006,1.0067,1.0074,1.0124,1.0131,1.0134,1.0131,1.0164,1.0164,1.0165,1.0165,1.0101,1.0099,0,0,0,0,0,0,0.9914,0.9926,0.9966,0.997,0.9966,1.0012,1.0021,1.0027,1.0077,1.0086,1.0072,1.0077,1.0129,1.0133,1.0137,1.0098,1.0164,1.0165,1.0165,1.0103,1.0101,1.0099,0,0,0,0,0,0,0.9912,0.9916,0.9964,0.995,0.9957,1.0011,1.0017,1.0027,1.0035,1.0085,1.0095,1.0069,1.0131,1.0136,1.0128,1.0101,1.0165,1.0166,1.0106,1.0103,1.01,1.0018,0,0,0,0,0,0,0.991,0.9915,0.9902,0.9949,0.9958,0.9954,1.0015,1.0027,1.0036,1.0044,1.0086,1.0094,1.0133,1.0126,1.0128,1.0103,1.0166,1.0108,1.0104,1.0101,1.0023,1.0012,1.0003,0,0,0,0,0,0.9908,0.9875,0.9901,0.9905,0.9942,0.9952,0.9957,1.0003,1.0034,1.0021,1.0053,1.0093,1.0104,1.0125,1.0128,1.0102,1.011,1.0105,1.0101,1.0028,1.0015,1.0003,0,0,0,0,0,0,0.9821,0.9882,0.9911,0.9892,0.9917,0.9966,0.9951,0.9987,1.0002,1.0009,1.0065,1.0073,1.0059,1.008,1.0102,1.007,1.0113,1.0109,1.0056,1.0044,1.0034,1.0029,1.0167,0,0,0,0,0,0.98,0.9804,0.9857,0.9835,0.9846,0.9896,0.9902,0.9936,0.9963,0.9973,1.0005,1.0028,1.0038,1.0042,1.0053,1.0027,1.0038,1.0011,1.0001,0.9993,0.9988,0.9978,0.9967,1.0083,1.0083,1.0084,0,0,0.9756,0.979,0.9788,0.9818,0.9841,0.9844,0.9904,0.9903,0.9906,0.9972,0.9967,0.9992,1.0022,1.0005,0.9999,1.0022,0.9959,0.9987,0.998,0.998,0.9972,0.9961,0.9951,1.008,1.0081,1.0081,0,0,0.9678,0.9703,0.9689,0.9711,0.9746,0.978,0.9777,0.9821,0.9841,0.9837,0.9888,0.9891,0.9905,0.9925,0.9937,0.9869,0.9906,0.987,0.9818,0.9807,0.9798,0.979,0.9766,0.9757,0.9866,0.9866,0.9866,0,0.9618,0.9625,0.9677,0.9674,0.9686,0.9749,0.9735,0.9754,0.9789,0.9796,0.9822,0.9842,0.9867,0.9856,0.984,0.9847,0.9845,0.9866,0.9795,0.9788,0.9781,0.9759,0.975,0.9861,0.9862,0.9862,0.9863,0,0.9551,0.9554,0.9539,0.9574,0.9584,0.9575,0.9626,0.963,0.9664,0.9695,0.9691,0.9724,0.9743,0.9743,0.9775,0.9738,0.9751,0.9785,0.983,0.9765,0.9745,0.9737,0.9855,0.9856,0.9858,0.9859,0,0,0.9417,0.9484,0.9477,0.9495,0.9538,0.9542,0.9537,0.9558,0.956,0.9583,0.9581,0.9592,0.9625,0.9638,0.9673,0.9664,0.9609,0.9699,0.9701,0.9682,0.9571,0.9546,0.9535,0.9635,0.9633,0.9632,0.9569,0,0.9347,0.9343,0.9391,0.9374,0.9379,0.9439,0.9435,0.9461,0.9491,0.9499,0.9532,0.954,0.9581,0.959,0.9584,0.9617,0.9588,0.9622,0.9632,0.9632,0.9623,0.9525,0.9497,0.9436,0.9562,0.956,0.956,0,0.9265,0.9285,0.9269,0.9316,0.9319,0.9315,0.9339,0.9346,0.9377,0.94,0.9416,0.9457,0.9455,0.9498,0.9497,0.9519,0.9527,0.9544,0.9543,0.9545,0.9592,0.9525,0.9418,0.9409,0.9548,0.9549,0.955,0,0.917,0.9194,0.9188,0.9201,0.9255,0.925,0.9272,0.9306,0.9316,0.9337,0.9344,0.9364,0.9374,0.9388,0.9434,0.946,0.9427,0.9474,0.9446,0.9445,0.9436,0.9435,0.9328,0.944,0.944,0.944,0.944,0,0.9087,0.9075,0.9146,0.9142,0.9131,0.9186,0.9173,0.9201,0.9231,0.9234,0.9287,0.9288,0.9348,0.9356,0.9391,0.9385,0.9389,0.9407,0.9417,0.9402,0.94,0.9408,0.9413,0.9438,0.9438,0.9439,0.9439,0,0.8979,0.9027,0.9024,0.9077,0.909,0.9079,0.9124,0.9122,0.9156,0.9159,0.9163,0.9215,0.9228,0.9275,0.9297,0.9321,0.9304,0.9323,0.9294,0.93,0.927,0.9272,0.9164,0.9153,0.9271,0.9269,0.9268,0,0.8923,0.8915,0.8968,0.8974,0.8995,0.9004,0.9015,0.907,0.9079,0.9116,0.911,0.9127,0.9144,0.9161,0.92,0.9219,0.9238,0.9199,0.9241,0.9228,0.9238,0.9238,0.9238,0.919,0.9188,0.9187,0.9186,0,0.8818,0.8843,0.8858,0.8881,0.8894,0.8915,0.8938,0.894,0.9001,0.9009,0.9024,0.9037,0.9062,0.9078,0.9103,0.9126,0.9166,0.9172,0.9167,0.9152,0.9137,0.9146,0.9269,0.9174,0.9176,0.9176,0.9177,0.9177,0.8735,0.8732,0.8769,0.8784,0.8809,0.883,0.8832,0.8868,0.8881,0.8906,0.8938,0.8948,0.8982,0.902,0.904,0.9049,0.9071,0.9063,0.9061,0.9058,0.9052,0.9135,0.9054,0.9054,0.9055,0.9055,0.9055,0,0.8634,0.8662,0.8675,0.8708,0.872,0.8759,0.8788,0.8795,0.8805,0.8833,0.8849,0.8866,0.8883,0.8925,0.8946,0.8945,0.8964,0.8949,0.8949,0.8954,0.903,0.9033,0.8933,0.8933,0.8933,0.8933,0.8933,0.8933,0.8583,0.858,0.8609,0.862,0.8647,0.8659,0.8673,0.8693,0.8717,0.8734,0.8749,0.8777,0.8811,0.8835,0.8852,0.8865,0.887,0.8848,0.8866,0.8937,0.8948,0.8959,0.8963,0.8849,0.8849,0.8789,0.8789,0.8788]}]]